TimeEDT,TemperatureF,Dew PointF,Humidity,Sea Level PressureIn,VisibilityMPH,Wind Direction,Wind SpeedMPH,Gust SpeedMPH,PrecipitationIn,Events,Conditions,WindDirDegrees,DateUTC
12:53 AM,30.0,21.9,72,29.90,10.0,West,15.0,24.2,N/A,,Mostly Cloudy,280,2013-03-23 04:53:00
1:53 AM,30.0,21.9,72,29.91,10.0,West,12.7,20.7,N/A,,Overcast,270,2013-03-23 05:53:00
2:15 AM,30.2,21.2,69,29.88,9.0,West,11.5,-,0.00,Snow,Light Snow,270,2013-03-23 06:15:00
2:53 AM,30.0,21.9,72,29.91,6.0,West,11.5,20.7,0.00,Snow,Light Snow,260,2013-03-23 06:53:00
3:53 AM,28.9,23.0,78,29.90,9.0,West,10.4,-,0.00,,Overcast,260,2013-03-23 07:53:00
4:53 AM,30.0,21.9,72,29.90,10.0,West,9.2,-,0.00,,Overcast,260,2013-03-23 08:53:00
5:28 AM,30.2,21.2,69,29.87,10.0,West,12.7,20.7,N/A,,Overcast,260,2013-03-23 09:28:00
5:53 AM,30.0,21.9,72,29.91,9.0,West,9.2,-,0.00,,Overcast,270,2013-03-23 09:53:00
6:53 AM,30.0,21.9,72,29.92,10.0,West,12.7,-,N/A,,Overcast,260,2013-03-23 10:53:00
7:50 AM,30.2,21.2,69,29.89,10.0,WNW,5.8,18.4,N/A,,Overcast,290,2013-03-23 11:50:00
7:53 AM,30.0,21.9,72,29.93,10.0,West,5.8,-,N/A,,Overcast,280,2013-03-23 11:53:00
8:00 AM,30.2,21.2,69,29.89,10.0,WNW,11.5,17.3,N/A,,Overcast,300,2013-03-23 12:00:00
8:53 AM,30.9,23.0,72,29.93,10.0,WNW,8.1,-,0.00,,Overcast,300,2013-03-23 12:53:00
9:53 AM,32.0,21.0,64,29.93,10.0,WNW,11.5,19.6,N/A,,Mostly Cloudy,300,2013-03-23 13:53:00
10:53 AM,33.1,21.0,61,29.93,10.0,NW,13.8,24.2,N/A,,Mostly Cloudy,310,2013-03-23 14:53:00
11:40 AM,35.6,19.4,52,29.90,10.0,West,16.1,24.2,N/A,,Scattered Clouds,280,2013-03-23 15:40:00
11:53 AM,35.1,19.9,54,29.93,10.0,WNW,10.4,24.2,N/A,,Scattered Clouds,290,2013-03-23 15:53:00
12:53 PM,36.0,19.9,52,29.94,10.0,West,16.1,25.3,N/A,,Overcast,270,2013-03-23 16:53:00
1:53 PM,35.1,19.9,54,29.95,10.0,West,11.5,21.9,N/A,,Overcast,280,2013-03-23 17:53:00
2:53 PM,35.1,19.0,52,29.95,10.0,West,11.5,25.3,N/A,,Overcast,280,2013-03-23 18:53:00
3:53 PM,35.1,18.0,50,29.95,10.0,WNW,11.5,21.9,N/A,,Overcast,300,2013-03-23 19:53:00
4:53 PM,35.1,19.0,52,29.96,10.0,WNW,11.5,21.9,N/A,,Overcast,300,2013-03-23 20:53:00
5:53 PM,34.0,21.0,59,29.97,10.0,NW,10.4,17.3,N/A,,Overcast,310,2013-03-23 21:53:00
6:53 PM,35.1,19.0,52,29.97,10.0,NW,10.4,-,N/A,,Overcast,310,2013-03-23 22:53:00
7:53 PM,34.0,19.9,56,29.99,10.0,WNW,6.9,-,N/A,,Overcast,300,2013-03-23 23:53:00
8:53 PM,34.0,21.0,59,30.00,10.0,Variable,6.9,-,N/A,,Overcast,0,2013-03-24 00:53:00
9:53 PM,33.1,21.9,64,29.99,10.0,NNW,4.6,-,N/A,,Overcast,330,2013-03-24 01:53:00
10:53 PM,32.0,21.0,64,30.00,10.0,WNW,4.6,-,N/A,,Mostly Cloudy,290,2013-03-24 02:53:00
11:53 PM,32.0,19.9,61,30.00,10.0,WNW,6.9,-,N/A,,Mostly Cloudy,290,2013-03-24 03:53:00